Location: *
(51.1248°S, 108.4023°W)
Time: 21:30:35
(UTC+00:00)

Cosmos 2278 Rocket - Pass Details

Date: 27 October 2021
Orbit: 841 x 845 km, 71.0° (Epoch: 30 November)

Event Time Altitude Azimuth Distance (km) Brightness Sun altitude
Exits shadow 07:30:06 24° 275° (W) 1,715 3.6 -25.6°
Maximum altitude 07:32:47 36° 227° (SW) 1,332 3.4 -25.5°
Drops below altitude 10° 07:38:04 10° 160° (SSE) 2,499 5.7 -25.4°
Sets 07:40:45 0° 151° (SSE) 3,440 6.6 -25.3°
